Wind_Speed
43 45 47 48 49 51 52 54 55 57 59 60 61 63 65 66 67 68 69 70 71 72 74 75 76 77 77 77 78 78 78 79 79 75 74 74 73 73 73 73 73 73 73
46 47 49 50 52 53 55 56 58 60 61 63 64 66 67 68 69 70 71 72 74 75 76 76 77 77 77 77 77 78 78 78 78 75 72 71 71 71 71 70 70 70 69
48 49 51 53 54 56 57 59 61 62 63 65 67 68 69 69 70 72 73 74 75 76 76 77 77 77 77 78 78 78 78 77 76 75 72 71 70 69 69 68 67 66 64
50 51 53 55 57 58 60 61 63 64 66 67 68 69 70 71 73 74 75 76 76 76 77 77 78 79 79 79 78 77 76 74 73 72 70 68 66 65 64 63 61 60 58
52 54 55 57 59 60 62 63 65 66 67 68 69 71 72 73 75 76 76 76 76 76 77 78 78 79 78 77 75 73 71 69 67 66 64 62 59 58 57 56 55 53 52
54 56 57 59 60 62 63 65 66 67 68 70 71 72 74 75 76 77 77 77 78 78 78 78 77 75 73 71 69 67 65 63 61 59 56 54 52 51 49 49 48 47 45
56 57 59 60 62 63 65 66 67 68 70 72 73 74 75 76 77 77 78 79 78 78 77 76 73 69 67 64 62 60 58 56 55 53 51 48 46 44 43 42 42 42 41
57 59 60 62 63 65 66 68 69 70 72 73 74 76 77 77 78 78 79 79 78 76 74 71 67 63 61 59 56 53 51 50 49 48 46 43 41 40 40 39 39 38 37
59 60 62 64 65 67 68 69 71 72 73 75 76 77 77 77 78 79 79 78 76 72 68 65 61 58 55 53 52 49 47 45 45 44 41 39 38 37 37 37 36 35 33
60 62 64 65 67 68 69 71 73 74 76 77 77 78 78 78 78 78 77 76 72 67 62 59 56 53 50 49 48 46 44 42 41 39 38 36 36 36 36 35 34 33 32
61 63 65 66 68 70 71 73 75 76 77 78 78 78 78 78 77 76 74 71 67 62 57 53 50 49 47 46 45 44 42 40 37 36 35 35 35 34 34 34 34 33 31
63 65 66 68 70 72 74 75 77 78 79 79 78 77 76 76 74 72 69 66 62 58 54 50 48 46 45 43 42 41 40 38 36 34 33 33 33 33 33 33 33 32 31
64 66 68 69 71 74 76 77 78 80 80 79 78 77 75 73 70 67 64 60 57 54 51 48 46 44 42 41 40 39 37 36 35 33 33 32 32 32 32 32 32 32 31
66 68 69 71 74 76 78 79 80 80 80 79 77 76 73 69 65 62 59 56 53 51 49 46 43 42 41 39 37 36 35 35 34 32 31 31 31 32 32 32 32 32 31
68 70 72 74 77 78 79 80 80 79 79 78 76 73 70 65 61 59 56 53 50 48 45 42 40 39 37 35 34 34 34 33 32 31 30 30 30 30 31 31 32 31 31
71 73 75 77 78 79 80 79 78 78 77 74 72 69 66 63 60 56 53 50 48 46 43 40 37 36 34 33 32 32 32 31 31 30 29 29 29 28 29 29 29 30 30
74 76 77 79 80 80 80 79 77 74 71 68 66 64 62 60 57 53 50 47 45 42 40 37 35 33 32 32 31 30 30 30 30 29 28 29 28 28 28 28 28 28 28
76 78 79 80 80 80 79 78 76 72 66 61 60 60 59 57 53 50 47 44 41 38 37 35 33 32 31 31 30 30 29 29 29 28 28 28 27 27 27 27 27 27 27
78 80 80 80 79 79 78 75 72 67 63 60 57 56 55 53 49 46 44 41 38 35 35 34 32 31 31 30 29 29 28 28 28 28 27 27 27 27 27 27 27 26 26
80 80 80 79 78 77 74 71 66 62 60 59 57 54 51 48 44 41 39 38 35 34 33 32 31 30 30 29 29 28 28 27 27 27 26 27 27 27 26 26 25 25 24
80 80 79 78 76 73 70 65 62 60 59 56 54 51 48 45 41 38 36 34 34 33 32 31 30 30 30 29 28 28 27 27 27 26 26 26 26 25 25 25 25 24 24
80 79 77 75 72 68 65 62 60 58 56 54 51 48 45 42 39 36 34 33 33 32 31 31 30 30 30 29 28 27 27 26 26 26 26 25 25 25 25 25 25 25 25
78 76 73 70 67 64 61 59 57 55 53 51 48 44 41 39 37 35 33 32 32 31 31 31 30 30 29 29 28 28 27 26 27 26 26 26 25 25 25 25 25 25 25
75 72 69 66 63 60 58 56 54 52 50 46 43 40 38 37 35 33 32 31 30 30 30 30 30 29 29 28 28 27 27 26 26 26 26 25 25 25 25 25 25 25 25
71 68 65 62 59 57 55 52 50 48 45 42 39 37 36 35 33 32 31 30 30 29 29 29 28 28 28 28 28 27 26 26 26 26 26 26 26 26 26 26 26 25 25
66 64 61 58 56 53 51 48 46 43 41 38 37 36 35 33 32 31 30 29 29 29 29 28 28 28 28 28 28 27 26 26 26 27 27 27 27 27 27 27 27 27 26
Wind_Direction
299 300 300 300 300 300 300 301 301 301 300 300 300 300 301 300 300 299 299 299 298 298 297 297 296 295 294 293 292 291 290 289 289 287 285 283 281 280 279 277 276 275 274
300 300 301 301 301 301 301 302 302 302 301 302 302 302 302 301 301 301 300 300 299 299 298 298 297 296 295 294 293 292 291 290 289 287 285 283 282 281 279 278 277 276 275
301 301 301 301 302 302 302 302 302 302 303 303 303 303 302 302 302 302 301 301 300 300 299 298 298 297 296 294 293 292 290 289 288 287 285 283 282 280 279 278 277 275 274
301 302 302 302 302 302 303 303 303 303 303 304 304 303 303 303 303 302 302 302 301 301 300 299 298 297 296 294 293 291 290 289 288 287 285 284 282 281 279 277 275 274 273
301 302 302 302 303 303 304 304 304 304 304 304 304 304 304 304 303 303 303 302 302 302 301 300 299 297 296 294 293 292 290 289 288 287 285 284 282 280 278 276 274 272 271
302 302 303 303 304 304 304 305 305 305 305 305 305 305 305 305 304 304 304 304 303 303 302 301 299 297 296 295 293 292 291 290 288 287 285 284 282 280 277 275 274 272 270
302 303 303 304 304 305 305 305 305 305 306 306 306 306 306 306 305 305 305 305 305 304 303 301 299 297 295 294 293 292 291 290 289 287 286 284 282 279 277 276 275 273 271
303 303 304 304 305 305 305 306 306 306 307 307 307 307 307 306 306 306 305 305 306 305 303 301 299 297 296 294 293 292 291 289 288 287 286 284 282 279 277 277 276 274 271
303 304 304 305 305 306 306 307 307 307 308 308 308 308 307 307 306 306 306 306 306 305 303 301 299 298 296 294 293 292 291 289 287 286 285 282 280 278 278 278 277 275 272
304 305 305 306 306 307 307 307 308 308 309 309 309 308 308 308 308 307 307 307 306 305 303 301 299 297 295 294 293 292 291 288 286 284 283 281 279 279 278 278 276 275 273
305 306 307 307 307 308 308 309 309 309 309 309 309 309 309 309 308 308 308 307 307 305 303 301 299 296 295 294 293 292 291 289 286 284 281 279 278 278 277 276 276 275 273
306 307 307 308 308 309 309 310 310 310 310 310 310 309 309 309 309 308 308 307 306 305 304 301 299 296 295 293 292 291 289 287 286 284 281 280 278 276 276 276 275 274 274
307 308 308 309 309 310 310 311 311 311 310 310 310 310 310 309 308 308 307 306 305 305 304 302 299 296 294 292 290 289 288 287 285 284 281 279 278 277 276 275 274 274 273
308 309 309 310 310 311 311 311 311 311 311 310 310 310 310 309 308 307 306 305 304 303 302 301 298 296 294 291 289 288 288 287 285 284 281 280 278 277 275 274 273 272 272
309 310 310 311 311 312 312 312 312 312 311 311 311 310 310 310 309 308 307 305 304 303 301 299 297 294 292 290 289 288 288 287 286 284 282 281 280 278 275 274 273 271 270
310 311 311 312 312 312 312 312 312 312 311 311 311 311 311 311 311 309 307 306 305 303 302 300 297 295 292 290 289 288 288 287 285 284 283 282 280 278 276 275 274 272 269
311 312 312 312 312 312 312 312 312 312 311 310 310 310 310 311 311 309 308 307 305 303 301 300 298 295 293 291 290 288 287 286 286 285 284 282 280 278 277 277 276 274 270
312 312 313 313 313 313 313 313 313 312 311 310 309 309 310 310 310 309 307 306 305 303 302 301 298 296 294 292 291 290 288 286 286 285 284 283 281 279 278 278 276 274 270
312 313 313 313 313 313 313 313 313 312 312 311 310 310 310 310 309 308 307 306 305 303 301 301 299 297 295 294 293 291 289 287 286 286 284 282 281 279 278 278 276 274 271
313 313 313 313 313 313 313 313 312 312 312 312 311 310 309 308 308 306 304 303 303 302 301 301 299 297 296 295 293 291 289 287 286 286 285 283 281 279 278 277 276 273 272
313 313 312 312 313 313 313 312 312 312 312 312 311 311 310 309 308 306 303 301 301 301 301 301 299 298 297 296 294 292 289 287 286 284 284 283 281 280 278 277 274 273 272
313 312 312 312 312 312 312 312 311 311 311 311 311 310 308 308 308 306 304 302 301 301 300 300 299 298 297 295 294 293 291 288 286 284 283 282 281 279 278 276 274 272 271
312 312 312 312 312 311 311 311 311 312 311 311 310 309 307 307 306 305 304 303 302 301 301 301 299 298 296 295 294 293 291 288 286 284 282 281 280 279 278 276 275 273 271
312 312 312 312 311 311 311 311 312 312 311 311 310 308 308 307 306 305 304 303 302 302 302 301 300 298 296 295 295 294 292 289 286 284 282 282 281 280 279 277 276 274 271
311 311 311 311 311 311 312 312 312 312 312 311 310 309 308 308 306 305 305 304 303 303 303 302 301 299 297 296 295 294 292 289 286 284 282 281 280 279 279 277 276 274 272
311 311 311 311 311 311 312 312 312 312 312 311 310 310 309 308 307 306 305 304 303 304 304 303 301 300 298 297 295 292 290 288 286 284 282 281 280 279 278 276 275 274 272
Height
5728 5723 5718 5713 5707 5702 5696 5690 5684 5678 5672 5665 5658 5651 5644 5636 5628 5621 5613 5606 5598 5590 5582 5573 5566 5557 5549 5541 5534 5527 5519 5512 5508 5510 5503 5497 5491 5487 5484 5480 5477 5475 5474
5717 5712 5707 5701 5695 5689 5683 5677 5670 5664 5657 5649 5642 5634 5627 5619 5610 5602 5595 5587 5578 5570 5561 5552 5544 5535 5527 5519 5511 5504 5496 5489 5483 5483 5481 5474 5469 5464 5460 5457 5454 5451 5450
5706 5700 5695 5689 5683 5676 5670 5663 5656 5649 5641 5633 5625 5617 5609 5601 5592 5584 5575 5567 5558 5549 5539 5530 5522 5513 5505 5496 5488 5480 5473 5466 5459 5456 5456 5451 5447 5442 5437 5435 5432 5430 5428
5694 5688 5682 5676 5670 5663 5656 5649 5641 5633 5625 5617 5608 5600 5591 5583 5574 5565 5556 5547 5537 5528 5518 5508 5499 5489 5481 5472 5464 5457 5449 5443 5437 5432 5430 5428 5424 5420 5415 5413 5411 5409 5408
5682 5676 5670 5663 5656 5649 5641 5633 5625 5617 5608 5600 5591 5582 5573 5563 5554 5544 5535 5526 5517 5507 5497 5486 5476 5466 5457 5448 5440 5434 5427 5421 5415 5411 5408 5406 5404 5400 5396 5392 5391 5391 5391
5670 5663 5656 5649 5642 5634 5626 5618 5610 5601 5592 5583 5574 5564 5554 5544 5534 5523 5513 5504 5495 5485 5475 5464 5454 5444 5435 5426 5419 5412 5406 5400 5395 5391 5389 5387 5385 5381 5378 5376 5374 5375 5376
5657 5650 5643 5635 5628 5619 5611 5602 5594 5585 5575 5566 5556 5545 5535 5524 5513 5503 5492 5482 5473 5462 5451 5441 5432 5423 5414 5407 5400 5394 5388 5382 5377 5374 5372 5370 5368 5366 5363 5362 5360 5360 5361
5643 5636 5628 5621 5613 5604 5595 5586 5577 5567 5558 5547 5537 5526 5516 5505 5493 5482 5471 5461 5451 5440 5429 5419 5410 5403 5395 5388 5383 5378 5373 5368 5363 5359 5356 5355 5353 5351 5350 5348 5347 5347 5348
5629 5622 5614 5605 5597 5588 5579 5569 5559 5550 5540 5529 5518 5506 5495 5485 5472 5461 5449 5440 5430 5420 5410 5400 5391 5385 5378 5371 5366 5363 5359 5355 5350 5346 5344 5342 5340 5339 5337 5336 5335 5335 5336
5615 5607 5598 5589 5580 5571 5562 5552 5542 5531 5521 5510 5499 5487 5475 5464 5452 5440 5428 5418 5410 5402 5392 5383 5375 5368 5363 5357 5352 5348 5345 5341 5338 5335 5333 5331 5329 5327 5326 5324 5324 5323 5324
5600 5592 5583 5573 5564 5554 5544 5534 5523 5513 5502 5491 5480 5469 5456 5443 5431 5420 5408 5397 5389 5382 5375 5368 5361 5354 5348 5343 5338 5334 5331 5328 5325 5323 5322 5320 5318 5316 5315 5314 5313 5312 5313
5585 5577 5567 5557 5547 5536 5526 5515 5504 5492 5481 5470 5459 5449 5437 5424 5411 5400 5390 5380 5371 5364 5358 5352 5346 5340 5335 5330 5326 5322 5319 5316 5314 5312 5310 5309 5307 5306 5305 5304 5303 5302 5302
5570 5560 5550 5540 5530 5518 5507 5496 5485 5472 5460 5449 5438 5428 5419 5407 5395 5383 5373 5364 5356 5348 5343 5337 5332 5327 5322 5318 5314 5310 5307 5305 5303 5301 5299 5298 5297 5295 5294 5293 5293 5292 5292
5553 5544 5534 5523 5513 5501 5489 5477 5464 5452 5440 5429 5418 5408 5399 5389 5378 5368 5359 5350 5343 5335 5329 5324 5319 5314 5309 5306 5303 5299 5296 5294 5292 5290 5289 5287 5286 5285 5284 5283 5283 5282 5282
5537 5527 5516 5506 5494 5483 5472 5459 5445 5434 5419 5407 5397 5387 5378 5371 5362 5351 5343 5336 5329 5322 5316 5312 5307 5302 5298 5295 5292 5289 5286 5284 5281 5280 5278 5277 5276 5274 5273 5272 5272 5271 5272
5520 5510 5499 5488 5476 5464 5453 5443 5430 5415 5403 5389 5377 5367 5359 5351 5343 5336 5328 5321 5314 5308 5303 5299 5295 5291 5287 5284 5282 5279 5276 5274 5271 5270 5268 5267 5265 5264 5263 5262 5261 5261 5261
5501 5491 5480 5469 5457 5445 5432 5421 5412 5403 5388 5375 5362 5352 5343 5336 5328 5320 5313 5308 5302 5296 5291 5287 5283 5280 5277 5274 5271 5269 5266 5264 5262 5260 5258 5257 5255 5254 5253 5252 5251 5250 5250
5483 5472 5461 5449 5437 5425 5413 5401 5389 5380 5372 5363 5352 5340 5330 5322 5315 5307 5300 5295 5291 5285 5280 5276 5273 5270 5267 5264 5261 5259 5256 5254 5252 5250 5248 5247 5245 5244 5243 5243 5241 5241 5240
5466 5454 5442 5431 5419 5406 5395 5383 5372 5362 5353 5345 5338 5328 5318 5310 5303 5296 5289 5283 5279 5275 5271 5267 5263 5260 5257 5254 5252 5249 5247 5245 5243 5241 5239 5237 5236 5235 5234 5233 5232 5231 5231
5448 5435 5422 5411 5400 5388 5377 5366 5356 5346 5338 5330 5322 5314 5306 5298 5292 5286 5279 5274 5269 5265 5262 5258 5254 5251 5248 5245 5242 5240 5237 5235 5233 5231 5229 5228 5226 5225 5224 5223 5223 5222 5222
5429 5417 5405 5393 5381 5370 5360 5350 5340 5332 5323 5315 5308 5299 5292 5285 5280 5275 5270 5265 5260 5256 5252 5249 5245 5242 5239 5236 5233 5230 5228 5226 5224 5222 5220 5219 5217 5216 5215 5214 5214 5213 5213
5409 5398 5387 5375 5365 5354 5344 5335 5326 5317 5309 5302 5295 5288 5280 5274 5269 5264 5259 5255 5251 5247 5243 5239 5236 5233 5229 5226 5223 5221 5218 5216 5214 5213 5211 5209 5208 5207 5206 5205 5205 5204 5204
5390 5379 5369 5358 5348 5339 5330 5321 5312 5304 5296 5289 5282 5275 5270 5264 5259 5254 5250 5245 5241 5237 5233 5230 5226 5223 5220 5217 5214 5211 5209 5207 5205 5203 5202 5200 5199 5198 5197 5196 5196 5195 5195
5372 5361 5352 5342 5333 5324 5315 5307 5299 5291 5283 5276 5270 5264 5259 5254 5249 5244 5240 5236 5232 5228 5224 5220 5217 5214 5210 5207 5204 5202 5199 5197 5195 5194 5192 5191 5190 5189 5188 5187 5186 5186 5185
5354 5344 5335 5326 5318 5309 5302 5294 5286 5279 5272 5265 5260 5254 5249 5244 5239 5235 5231 5227 5223 5219 5215 5211 5208 5204 5201 5198 5195 5193 5190 5188 5186 5184 5183 5182 5180 5179 5178 5178 5177 5176 5176
5338 5328 5319 5311 5303 5296 5288 5281 5275 5268 5261 5255 5250 5245 5240 5235 5230 5226 5222 5218 5214 5210 5206 5203 5199 5196 5192 5189 5186 5183 5181 5179 5177 5175 5173 5172 5171 5170 5168 5167 5167 5166 5165